{"data":{"norad_id":66681,"epoch":"2026-05-25T03:53:57.883200Z","epoch_age_seconds":61754,"freshness":"FRESH","line1":"1 66681U 25276R   26145.16247550  .00016712  00000+0  70880-3 0  9999","line2":"2 66681  97.4121 219.3590 0006864 102.5481 257.6524 15.23164777 26953","mean_motion":15.23164777,"eccentricity":0.0006864,"inclination_deg":97.4121,"raan_deg":219.359,"arg_perigee_deg":102.5481,"mean_anomaly_deg":257.6524,"bstar":0.0007088,"rev_number":2695,"period_min":94.540001301514,"perigee_km":491.5831730546,"apogee_km":501.02040262255,"semimajor_km":6874.4387878386,"source":"CELESTRAK","updated_at":"2026-05-25T13:38:06.410375Z"}}